This is the latest recevied weather packets stored in our database for station/object IT9CNT. If no packets are shown the sender has not sent any weather packets the latest 10 day(s).
| Time | Temp. | Humidity | Pressure | Rain* | Wind** | Luminosity | Snow |
|---|---|---|---|---|---|---|---|
| 1787582043 | 32.22° C | 57% | 1013.8 hPa | 0 mm | - | - | - |
| 1787581983 | 32.22° C | 62% | 1013.7 hPa | 0 mm | - | - | - |
| 1787581923 | 32.22° C | 62% | 1013.6 hPa | 0 mm | - | - | - |
| 1787581863 | 32.22° C | 62% | 1013.7 hPa | 0 mm | - | - | - |
| 1787581803 | 32.22° C | 62% | 1013.8 hPa | 0 mm | - | - | - |
| 1787581743 | 32.22° C | 62% | 1013.7 hPa | 0 mm | - | - | - |
| 1787581683 | 32.22° C | 62% | 1013.7 hPa | 0 mm | - | - | - |
| 1787581623 | 32.22° C | 62% | 1013.7 hPa | 0 mm | - | - | - |
| 1787581563 | 32.22° C | 63% | 1013.6 hPa | 0 mm | - | - | - |
| 1787581503 | 32.22° C | 63% | 1013.5 hPa | 0 mm | - | - | - |
| 1787581443 | 32.78° C | 60% | 1013.6 hPa | 0 mm | - | - | - |
| 1787581383 | 32.22° C | 57% | 1013.6 hPa | 0 mm | - | - | - |
| 1787581323 | 32.22° C | 57% | 1013.9 hPa | 0 mm | - | - | - |
| 1787581263 | 32.22° C | 57% | 1013.6 hPa | 0 mm | - | - | - |
| 1787581203 | 32.78° C | 57% | 1013.4 hPa | 0 mm | - | - | - |
| 1787581143 | 32.78° C | 57% | 1013.7 hPa | 0 mm | - | - | - |
| 1787581083 | 32.22° C | 53% | 1013.6 hPa | 0 mm | - | - | - |
| 1787581023 | 32.22° C | 53% | 1013.3 hPa | 0 mm | - | - | - |
| 1787580963 | 32.22° C | 54% | 1013.7 hPa | 0 mm | - | - | - |
| 1787580903 | 32.22° C | 54% | 1013.4 hPa | 0 mm | - | - | - |
| 1787580843 | 32.22° C | 54% | 1013.8 hPa | 0 mm | - | - | - |
| 1787580783 | 32.22° C | 54% | 1013.6 hPa | 0 mm | - | - | - |
| 1787580723 | 32.78° C | 53% | 1013.7 hPa | 0 mm | - | - | - |
| 1787580664 | 32.78° C | 53% | 1013.9 hPa | 0 mm | - | - | - |
| 1787580604 | 32.78° C | 55% | 1013.6 hPa | 0 mm | - | - | - |
* Rain latest hour (hover to see other rain measurements)
** Current wind speed in m/s (hover to see current wind gust speed)